Regional Weather Roundup
Issued by NWS

Home | Current Version | Previous Version | Graphics & Text | Print | Product List | Glossary On
Versions: 1 2 3 4 5 6 7 8 9 10 11 12 13 14 15 16 17 18 19 20 21 22 23 24 25 26 27 28 29 30 31 32 33 34 35 36 37 38 39 40 41 42 43 44 45 46 47 48 49 50
000
ASUS43 KOAX 020702
RWRNE

WEATHER ROUNDUP FOR NEBRASKA
NATIONAL WEATHER SERVICE OMAHA NE
200 AM CDT SAT AUG 02 2014

NOTES: SATELLITE DATA IS BEING USED TO AUGMENT CLOUD COVER ABOVE
       12000 FEET.
       "FAIR" INDICATES FEW OR NO CLOUDS BELOW 12,000 FEET WITH NO
       SIGNIFICANT WEATHER AND/OR OBSTRUCTIONS TO VISIBILITY.

  * THESE STATIONS DO NOT REPORT WEATHER SUCH AS RAIN...SNOW OR FOG.

NEZ001>004-019>022-054>056-020800-
NEBRASKA PANHANDLE

CITY           SKY/WX    TMP DP  RH WIND       PRES   REMARKS
SCOTTSBLUFF    CLEAR     60  53  77 E5        30.17R
ALLIANCE       PTCLDY    65  45  48 CALM      30.15S
CHADRON        PTCLDY    57  45  64 CALM      30.10S
KIMBALL        CLEAR     61  52  73 SW5       30.22S
SIDNEY         CLEAR     63  50  62 SW10      30.20F
$$

NEZ057>060-069>072-079>082-020800-
SOUTHWEST NEBRASKA

CITY           SKY/WX    TMP DP  RH WIND       PRES   REMARKS
NORTH PLATTE   CLEAR     65  58  78 SE7       30.14S
IMPERIAL       CLEAR     67  52  58 S8        30.16F
LEXINGTON      CLEAR     66  59  78 SE8       30.13F
MCCOOK         CLEAR     64  56  75 CALM      30.15F
OGALLALA       CLEAR     67  52  59 S6        30.14F
$$

NEZ005>010-023>029-035>040-094-020800-
NORTH CENTRAL NEBRASKA

CITY           SKY/WX    TMP DP  RH WIND       PRES   REMARKS
VALENTINE      LGT RAIN  68  60  75 E9        30.12S
AINSWORTH      MOCLDY    64  59  85 SE10      30.15F
BROKEN BOW     MOCLDY    64  59  83 E5        30.15R
O`NEILL        TSTM      67  63  88 E5        30.16F
ORD            CLOUDY    63  60  90 N10       30.19R
THEDFORD       PTCLDY    70  60  71 SE7       30.16R
$$

NEZ041-046>049-061>064-073>077-083>087-020800-
SOUTH CENTRAL NEBRASKA

CITY           SKY/WX    TMP DP  RH WIND       PRES   REMARKS
GRAND ISLAND   PTCLDY    66  61  84 SE7       30.13F
AURORA         PTCLDY    63  62  97 E5        30.13S
HASTINGS       CLEAR     68  59  73 SE8       30.13S
HEBRON         CLEAR     61  57  88 CALM      30.12S
HOLDREGE       CLEAR     62  56  83 SE5       30.14S
KEARNEY *      CLEAR     63  57  82 S3        30.14S
YORK           PTCLDY    64  61  88 SE6       30.13S
$$

NEZ011>018-030>034-042>045-020800-
NORTHEAST NEBRASKA

CITY           SKY/WX    TMP DP  RH WIND       PRES   REMARKS
NORFOLK        MOCLDY    64  60  87 NW5       30.16R
ALBION         MOCLDY    64  60  86 NW3       30.18R
BLAIR          CLEAR     67  60  78 NE5       30.12S
COLUMBUS *     PTCLDY    61  55  82 CALM      30.13S
FREMONT        PTCLDY    67  63  88 CALM      30.13R
TEKAMAH        PTCLDY    62  59  90 CALM      30.12S
WAYNE          CLOUDY    61  59  94 CALM      30.15R
$$

NEZ050>053-065>068-078-088>093-020800-
SOUTHEAST NEBRASKA

CITY           SKY/WX    TMP DP  RH WIND       PRES   REMARKS
LINCOLN        CLEAR     62  58  86 N5        30.12F
OMAHA EPPLEY   PTCLDY    66  62  87 CALM      30.11F
BEATRICE       MOCLDY    68  63  82 E3        30.11F
FALLS CITY     PTCLDY    66  63  90 E5        30.10F
NEBRASKA CITY  CLEAR     66  66 100 CALM      30.12S
PLATTSMOUTH    CLEAR     66  62  87 CALM      30.12F
$$

NEZ044-045-051>053-067-020800-
OMAHA AREA

CITY           SKY/WX    TMP DP  RH WIND       PRES   REMARKS
OMAHA EPPLEY   PTCLDY    66  62  87 CALM      30.11F
BLAIR          CLEAR     67  60  78 NE5       30.12S
FREMONT        PTCLDY    67  63  88 CALM      30.13R
MILLARD        CLEAR     66  64  92 CALM      30.11S
OFFUTT AFB     CLEAR     60  60 100 CALM      30.10F
PLATTSMOUTH    CLEAR     66  62  87 CALM      30.12F
WAHOO          FAIR      64  61  90 CALM      30.13R
$$


USA.gov is the U.S. government's official web portal to all federal, state and local government web resources and services.